Location: *
(42.0175°N, 9.4056°E)
Time: 04:43:02
(UTC+00:00)

Cosmos 1610 Rocket - Pass Details

Date: 25 August 2019
Orbit: 952 x 1003 km, 82.9° (Epoch: 14 September)

Event Time Altitude Azimuth Distance (km) Brightness Sun altitude
Rises 21:16:55 0° 353° (N) 3,642 8.4 -29.8°
Reaches altitude 10° 21:19:25 10° 354° (N) 2,696 7.5 -30.1°
Enters shadow 21:25:05 75° 19° (NNE) 997 4.5 -30.7°
